This is the latest recevied weather packets stored in our database for station/object VE8SKI. If no packets are shown the sender has not sent any weather packets the latest 10 day(s).
| Time | Temp. | Humidity | Pressure | Rain* | Wind** | Luminosity | Snow |
|---|---|---|---|---|---|---|---|
| 1778014415 | 5.56° C | 56% | 1021.4 hPa | 0 mm | 2.68 m/s, 266° | - | - |
| 1778014116 | 5° C | 55% | 1021.4 hPa | 0 mm | 4.47 m/s, 281° | - | - |
| 1778013817 | 5.56° C | 55% | 1021.5 hPa | 0 mm | 2.24 m/s, 250° | - | - |
| 1778013517 | 5° C | 56% | 1021.6 hPa | 0 mm | 2.68 m/s, 219° | - | - |
| 1778013218 | 5° C | 55% | 1021.7 hPa | 0 mm | 3.13 m/s, 218° | - | - |
| 1778012918 | 5.56° C | 55% | 1021.8 hPa | 0 mm | 2.24 m/s, 7° | - | - |
| 1778012616 | 5.56° C | 54% | 1021.9 hPa | 0 mm | 1.79 m/s, 236° | - | - |
| 1778012316 | 5.56° C | 55% | 1022 hPa | 0 mm | 2.24 m/s, 214° | - | - |
| 1778012017 | 5° C | 55% | 1022 hPa | 0 mm | 2.24 m/s, 295° | - | - |
| 1778011718 | 5° C | 55% | 1022 hPa | 0 mm | 3.58 m/s, 200° | - | - |
| 1778011418 | 5° C | 54% | 1022.1 hPa | 0 mm | 2.24 m/s, 239° | - | - |
| 1778011118 | 5.56° C | 55% | 1022.2 hPa | 0 mm | 2.68 m/s, 231° | - | - |
| 1778010816 | 5° C | 56% | 1022.2 hPa | 0 mm | 3.13 m/s, 224° | - | - |
| 1778010517 | 4.44° C | 54% | 1022.2 hPa | 0 mm | 3.58 m/s, 228° | - | - |
| 1778010217 | 5° C | 54% | 1022.3 hPa | 0 mm | 2.68 m/s, 359° | - | - |
| 1778009918 | 5° C | 54% | 1022.3 hPa | 0 mm | 3.58 m/s, 167° | - | - |
| 1778009618 | 5.56° C | 54% | 1022.3 hPa | 0 mm | 2.24 m/s, 267° | - | - |
| 1778009319 | 5° C | 55% | 1022.4 hPa | 0 mm | 2.68 m/s, 194° | - | - |
| 1778009017 | 4.44° C | 54% | 1022.5 hPa | 0 mm | 2.68 m/s, 267° | - | - |
| 1778008717 | 5° C | 54% | 1022.6 hPa | 0 mm | 2.24 m/s, 266° | - | - |
| 1778008418 | 4.44° C | 54% | 1022.7 hPa | 0 mm | 3.13 m/s, 276° | - | - |
| 1778008118 | 5° C | 54% | 1022.7 hPa | 0 mm | 2.24 m/s, 228° | - | - |
| 1778007819 | 4.44° C | 54% | 1022.7 hPa | 0 mm | 3.13 m/s, 273° | - | - |
| 1778007519 | 4.44° C | 53% | 1022.7 hPa | 0 mm | 4.47 m/s, 280° | - | - |
| 1778007217 | 4.44° C | 54% | 1022.8 hPa | 0 mm | 3.13 m/s, 228° | - | - |
* Rain latest hour (hover to see other rain measurements)
** Current wind speed in m/s (hover to see current wind gust speed)